[[{"header":{"parameterUnit":"m.s-1","parameterCategory":1,"la1":30.2992,"la2":30.254,"lo1":-89.0895,"lo2":-89.0443,"dy":0.0025,"dx":0.0025,"nx":19,"ny":19,"refTime":"2026-03-25T21:00:00:Z","depth":0,"parameterNumber":2,"parameterNumberName":"U-component_of_WINDS"},"data":[0,0,0,-3.7082,-3.7088,-3.7383,-3.7384,-3.7754,-3.7758,0,0,0,0,0,0,0,0,0,0,0,-3.6984,-3.6986,-3.7081,-3.7088,-3.7383,-3.7384,-3.7754,-3.7758,0,0,0,0,0,0,0,0,0,0,0,-3.6983,-3.6985,-3.6988,-3.7089,-3.7383,-3.7384,-3.7753,-3.7535,0,0,0,0,0,0,0,0,0,0,-3.725,-3.7147,-3.6985,-3.6988,-3.7091,-3.7382,-3.7384,-3.7524,-3.7548,-3.7616,0,-3.7667,0,-3.7718,-3.7781,-3.7783,0,0,0,-3.7098,-3.7127,-3.7216,-3.6988,-3.7094,-3.7382,-3.7253,-3.7538,-3.7565,-3.7648,-3.7673,-3.7687,-3.7724,-3.7784,-3.7785,-3.8129,-3.813,0,0,-3.7082,-3.7032,-3.7197,-3.7233,-3.7179,-3.7243,-3.7262,-3.7554,-3.7581,-3.7674,-3.7696,-3.773,-3.7786,-3.7789,-3.8128,-3.8129,0,0,0,-3.7028,-3.702,-3.7102,-3.7217,-3.727,-3.7251,-3.7273,-3.7568,-3.7598,-3.77,-3.7734,-3.7788,-3.7792,-3.8127,-3.8128,-3.8133,0,0,0,-3.7019,-3.6989,-3.7095,-3.7067,-3.7264,-3.7421,-3.7279,-3.7578,-3.7613,-3.7732,-3.7788,-3.7796,-3.8125,-3.8128,-3.813,-3.8143,0,0,0,-3.6968,-3.6983,-3.7022,-3.7064,-3.7188,-3.7418,-3.7465,-3.7587,-3.7634,-3.7783,-3.7797,-3.8125,-3.8127,-3.8127,-3.8139,-3.8218,0,0,0,-3.6901,-3.7024,-3.7021,-3.7173,-3.7185,-3.7417,-3.7464,-3.7641,-3.7769,-3.779,-3.8126,-3.8128,-3.8127,-3.8137,-3.8214,-3.8272,-3.8291,0,0,-3.7028,-3.7037,-3.7131,-3.7137,-3.7355,-3.7376,-3.7599,-3.7767,-3.7831,-3.8028,-3.8037,-3.8131,-3.8139,-3.8217,-3.8423,-3.8438,0,0,0,-3.7155,-3.7221,-3.729,-3.7407,-3.7536,-3.7649,-3.7788,-3.7852,-3.8021,-3.7919,-3.8184,-3.819,-3.8238,-3.8268,-3.8281,-3.8325,-3.814,-3.814,-3.814,-3.7262,-3.7333,-3.7494,-3.7601,-3.7716,-3.7859,-3.796,-3.8071,-3.8112,-3.8174,-3.8231,-3.8347,-3.838,-3.839,-3.8436,-3.8271,-3.8271,-3.8271,-3.8271,-3.7453,-3.7558,-3.761,-3.7783,-3.7861,-3.8011,-3.8156,-3.8181,-3.8335,-3.8309,-3.8356,-3.8318,-3.8404,-3.8448,-3.8272,-3.8272,-3.8271,-3.8271,-3.8271,-3.7529,-3.7591,-3.7664,-3.7843,-3.7976,-3.8085,-3.8229,-3.8297,-3.8363,-3.8409,-3.8477,-3.8478,-3.8485,-3.8437,-3.8438,-3.8438,-3.8438,-3.8439,-3.8439,-3.7576,-3.7659,-3.7768,-3.7917,-3.8003,-3.8126,-3.8275,-3.8364,-3.8481,-3.852,-3.852,-3.8556,-3.8399,-3.8357,-3.8446,-3.8444,-3.8444,-3.8443,-3.8442,-3.7738,-3.7713,-3.7882,-3.7968,-3.8151,-3.8279,-3.8365,-3.8541,-3.8626,-3.8696,-3.8725,-3.8598,-3.8614,-3.8604,-3.8569,-3.8708,-3.8708,-3.8708,-3.8708,-3.7799,-3.7814,-3.8003,-3.8136,-3.8276,-3.8372,-3.8568,-3.8688,-3.8809,-3.8867,-3.8859,-3.882,-3.8807,-3.8831,-3.8816,-3.8785,-3.8975,-3.8975,-3.8975,-3.7903,-3.7934,-3.8083,-3.8196,-3.8346,-3.8475,-3.8662,-3.8819,-3.8953,-3.8988,-3.8915,-3.8903,-3.8842,-3.8818,-3.8845,-3.8821,-3.8765,0,0]},{"header":{"parameterUnit":"m.s-1","parameterCategory":1,"la1":30.2992,"la2":30.254,"lo1":-89.0895,"lo2":-89.0443,"dy":0.0025,"dx":0.0025,"nx":19,"ny":19,"refTime":"2026-03-25T21:00:00:Z","depth":0,"parameterNumber":3,"parameterNumberName":"V-component_of_WINDS"},"data":[0,0,0,1.8066,1.8068,1.8207,1.8207,1.8364,1.8365,0,0,0,0,0,0,0,0,0,0,0,1.8008,1.8009,1.8065,1.8068,1.8207,1.8207,1.8364,1.8365,0,0,0,0,0,0,0,0,0,0,0,1.8008,1.8009,1.8009,1.8069,1.8206,1.8207,1.8363,1.8267,0,0,0,0,0,0,0,0,0,0,1.8136,1.8066,1.8009,1.8009,1.807,1.8206,1.8208,1.8263,1.8273,1.8291,0,1.83,0,1.8335,1.8374,1.8374,0,0,0,1.8081,1.8058,1.811,1.8009,1.8071,1.8206,1.8148,1.8269,1.828,1.8305,1.8302,1.8309,1.8337,1.8375,1.8375,1.8433,1.8433,0,0,1.8073,1.8025,1.8102,1.8116,1.809,1.8143,1.8152,1.8276,1.8271,1.8303,1.8313,1.834,1.8376,1.8377,1.8434,1.8433,0,0,0,1.8043,1.8019,1.8069,1.8109,1.8136,1.8147,1.8157,1.8266,1.8286,1.8315,1.8342,1.8376,1.8378,1.8434,1.8434,1.8369,0,0,0,1.8039,1.8001,1.8064,1.8036,1.8133,1.8202,1.8143,1.8278,1.8293,1.8341,1.8376,1.8379,1.8435,1.8434,1.8372,1.8346,0,0,0,1.8005,1.7997,1.8012,1.8033,1.8091,1.8201,1.8229,1.8282,1.8309,1.8374,1.838,1.8435,1.8434,1.8374,1.835,1.8348,0,0,0,1.7955,1.7952,1.801,1.8018,1.8089,1.816,1.8228,1.8284,1.8332,1.8377,1.8434,1.8434,1.8375,1.8353,1.835,1.8335,1.8325,0,0,1.7924,1.7946,1.7956,1.8012,1.8059,1.8143,1.8183,1.8274,1.8326,1.8396,1.8398,1.8371,1.8351,1.8348,1.8287,1.8278,0,0,0,1.7929,1.7935,1.7959,1.8002,1.8072,1.8131,1.8221,1.8256,1.8318,1.835,1.8372,1.8361,1.8362,1.8357,1.835,1.8354,1.843,1.843,1.843,1.7813,1.7881,1.7901,1.7986,1.8029,1.8124,1.8166,1.823,1.8285,1.829,1.8309,1.8264,1.8256,1.8251,1.8255,1.8309,1.8309,1.8308,1.8308,1.7774,1.7793,1.787,1.7916,1.7989,1.8031,1.8126,1.8165,1.8216,1.8253,1.8257,1.829,1.8239,1.8246,1.8304,1.8305,1.8305,1.8306,1.8306,1.7703,1.7724,1.7768,1.7841,1.7892,1.7981,1.8027,1.8093,1.8155,1.816,1.8189,1.8191,1.82,1.817,1.817,1.8169,1.8169,1.8169,1.8169,1.7612,1.7664,1.7693,1.7771,1.7811,1.7871,1.7972,1.8014,1.8077,1.8122,1.8123,1.8178,1.8222,1.8231,1.8167,1.8167,1.8168,1.8168,1.8168,1.7543,1.7571,1.7615,1.7655,1.7755,1.7803,1.7889,1.7969,1.8014,1.8036,1.8093,1.8115,1.8143,1.8149,1.8157,1.8078,1.8078,1.8078,1.8078,1.7482,1.7504,1.7568,1.7627,1.7694,1.7777,1.7832,1.7913,1.8002,1.8035,1.8058,1.8075,1.8078,1.8104,1.8111,1.812,1.8033,1.8033,1.8033,1.7444,1.7476,1.7506,1.7593,1.7678,1.775,1.7804,1.7873,1.7981,1.8032,1.8063,1.8065,1.8093,1.8099,1.8145,1.8155,1.8172,0,0]}]]